User: anonymous   Login
Location: Ravensburg
(47.7866°N, 9.6124°E)
Time: 21:35:38
(UTC+01:00)
Language:

NOAA 19 - Orbit

View from above orbital plane
View from above orbital plane
View from above satellite
View from above satellite

Ground track
Ground track

The orbit is defined by the following mean orbital elements,

1 33591U          26075.24780872 +.00000000 +00000-0 +51141-4 0 00008
2 33591  98.9595 146.0296 0012745 294.7741  65.2105 14.13458006    00
Epoch (UTC): 16 March 2026 05:56:50
Eccentricity: 0.0012745
inclination: 98.9595°
perigee height: 838 km
apogee height: 857 km
right ascension of ascending node: 146.0296°
argument of perigee: 294.7741°
revolutions per day: 14.13458006
mean anomaly at epoch: 65.2105°

The dashed part of the orbit path shows where the satellite is in the earth's shadow,  

DLR